Previsão horária em Centennial

Hoje, 3 Agosto, Terça-feira

Tempo Temperatura Precipitação Vento Pressão Humidade
00:00 +21°C° 0 mm 2 m/s 619 mmHg 53%
01:00 +21°C° 0 mm 2 m/s 619 mmHg 53%
02:00 +21°C° 0 mm 1 m/s 618 mmHg 53%
03:00 +20°C° 0 mm 2 m/s 618 mmHg 54%
04:00 +20°C° 0 mm 2 m/s 618 mmHg 55%
05:00 +19°C° 0 mm 2 m/s 618 mmHg 56%
06:00 +20°C° 0.1 mm 3 m/s 619 mmHg 58%
07:00 +20°C° 0.1 mm 4 m/s 619 mmHg 59%
08:00 +20°C° 0.1 mm 5 m/s 619 mmHg 60%
09:00 +22°C° 0 mm 4 m/s 620 mmHg 54%
10:00 +23°C° 0 mm 4 m/s 620 mmHg 48%
11:00 +25°C° 0 mm 4 m/s 620 mmHg 42%
12:00 +26°C° 0 mm 3 m/s 620 mmHg 39%
13:00 +27°C° 0 mm 2 m/s 620 mmHg 35%
14:00 +28°C° 0 mm 2 m/s 620 mmHg 31%
15:00 +28°C° 0 mm 2 m/s 620 mmHg 32%
16:00 +28°C° 0 mm 3 m/s 619 mmHg 34%
17:00 +27°C° 0 mm 3 m/s 619 mmHg 35%
18:00 +25°C° 0 mm 3 m/s 619 mmHg 41%
19:00 +24°C° 0 mm 3 m/s 619 mmHg 47%
20:00 +21°C° 0 mm 3 m/s 619 mmHg 53%
21:00 +20°C° 0 mm 2 m/s 619 mmHg 55%
22:00 +20°C° 0 mm 2 m/s 619 mmHg 57%
23:00 +19°C° 0 mm 2 m/s 619 mmHg 59%

Amanhã, 4 Agosto, Quarta-feira

Tempo Temperatura Precipitação Vento Pressão Humidade
00:00 +19°C° 0 mm 2 m/s 619 mmHg 59%
01:00 +19°C° 0 mm 2 m/s 618 mmHg 60%
02:00 +19°C° 0 mm 2 m/s 618 mmHg 60%
03:00 +19°C° 0 mm 2 m/s 618 mmHg 61%
04:00 +19°C° 0 mm 2 m/s 618 mmHg 61%
05:00 +20°C° 0 mm 1 m/s 619 mmHg 61%
06:00 +21°C° 0 mm 1 m/s 619 mmHg 58%
07:00 +22°C° 0 mm 1 m/s 619 mmHg 55%
08:00 +23°C° 0 mm 1 m/s 620 mmHg 52%
09:00 +24°C° 0 mm 2 m/s 620 mmHg 45%
10:00 +26°C° 0 mm 3 m/s 621 mmHg 38%
11:00 +28°C° 0 mm 5 m/s 621 mmHg 31%
12:00 +29°C° 0 mm 5 m/s 621 mmHg 28%
13:00 +30°C° 0 mm 5 m/s 621 mmHg 25%
14:00 +30°C° 0 mm 5 m/s 621 mmHg 22%
15:00 +30°C° 0 mm 5 m/s 621 mmHg 22%
16:00 +30°C° 0 mm 4 m/s 620 mmHg 22%
17:00 +30°C° 0 mm 3 m/s 620 mmHg 21%
18:00 +29°C° 0 mm 3 m/s 620 mmHg 24%
19:00 +27°C° 0 mm 2 m/s 619 mmHg 26%
20:00 +25°C° 0 mm 1 m/s 619 mmHg 28%
21:00 +24°C° 0 mm 2 m/s 619 mmHg 31%
22:00 +23°C° 0 mm 2 m/s 619 mmHg 33%
23:00 +21°C° 0 mm 2 m/s 619 mmHg 36%

Depois de amanhã, 5 Agosto, Quinta-feira

Tempo Temperatura Precipitação Vento Pressão Humidade
00:00 +20°C° 0 mm 2 m/s 619 mmHg 37%
01:00 +20°C° 0 mm 2 m/s 619 mmHg 38%
02:00 +19°C° 0 mm 2 m/s 619 mmHg 39%
03:00 +19°C° 0 mm 3 m/s 618 mmHg 40%
04:00 +19°C° 0 mm 3 m/s 618 mmHg 41%
05:00 +18°C° 0 mm 3 m/s 618 mmHg 42%
06:00 +21°C° 0 mm 2 m/s 619 mmHg 38%
07:00 +24°C° 0 mm 2 m/s 620 mmHg 34%
08:00 +27°C° 0 mm 2 m/s 621 mmHg 29%
09:00 +28°C° 0 mm 2 m/s 621 mmHg 25%
10:00 +30°C° 0 mm 1 m/s 621 mmHg 21%
11:00 +32°C° 0 mm 1 m/s 622 mmHg 17%
12:00 +34°C° 0 mm 2 m/s 621 mmHg 16%
13:00 +35°C° 0 mm 2 m/s 621 mmHg 14%
14:00 +35°C° 0 mm 3 m/s 621 mmHg 13%
15:00 +34°C° 0 mm 3 m/s 620 mmHg 17%
16:00 +33°C° 0 mm 4 m/s 620 mmHg 21%
17:00 +30°C° 0 mm 5 m/s 619 mmHg 25%
18:00 +28°C° 0 mm 4 m/s 619 mmHg 28%
19:00 +27°C° 0 mm 3 m/s 619 mmHg 32%
20:00 +25°C° 0 mm 3 m/s 618 mmHg 36%
21:00 +24°C° 0 mm 3 m/s 618 mmHg 37%
22:00 +22°C° 0 mm 3 m/s 617 mmHg 39%
23:00 +21°C° 0 mm 3 m/s 617 mmHg 40%

6 Agosto, Sexta-feira

Tempo Temperatura Precipitação Vento Pressão Humidade
00:00 +21°C° 0 mm 3 m/s 617 mmHg 41%
01:00 +21°C° 0 mm 3 m/s 616 mmHg 43%
02:00 +20°C° 0 mm 4 m/s 616 mmHg 44%
03:00 +20°C° 0 mm 4 m/s 616 mmHg 44%
04:00 +20°C° 0 mm 4 m/s 616 mmHg 44%
05:00 +20°C° 0 mm 4 m/s 616 mmHg 44%
06:00 +23°C° 0 mm 4 m/s 617 mmHg 37%
07:00 +26°C° 0 mm 3 m/s 617 mmHg 31%
08:00 +29°C° 0 mm 3 m/s 618 mmHg 25%
09:00 +31°C° 0 mm 3 m/s 618 mmHg 20%
10:00 +34°C° 0 mm 2 m/s 619 mmHg 16%
11:00 +36°C° 0 mm 2 m/s 619 mmHg 12%
12:00 +34°C° 0 mm 3 m/s 618 mmHg 17%
13:00 +32°C° 0 mm 5 m/s 617 mmHg 22%
14:00 +29°C° 0 mm 6 m/s 616 mmHg 28%
15:00 +28°C° 0.2 mm 6 m/s 616 mmHg 29%
16:00 +28°C° 0.2 mm 5 m/s 616 mmHg 31%
17:00 +28°C° 0.2 mm 4 m/s 616 mmHg 33%
18:00 +26°C° 0.2 mm 4 m/s 616 mmHg 38%
19:00 +25°C° 0.2 mm 4 m/s 616 mmHg 44%
20:00 +22°C° 0.2 mm 4 m/s 615 mmHg 49%
21:00 +22°C° 0 mm 4 m/s 615 mmHg 48%
22:00 +21°C° 0 mm 4 m/s 615 mmHg 46%
23:00 +21°C° 0 mm 4 m/s 615 mmHg 45%

7 Agosto, Sábado

Tempo Temperatura Precipitação Vento Pressão Humidade
00:00 +21°C° 0 mm 4 m/s 614 mmHg 45%
01:00 +21°C° 0 mm 4 m/s 614 mmHg 45%
02:00 +20°C° 0 mm 3 m/s 614 mmHg 45%
03:00 +20°C° 0 mm 3 m/s 614 mmHg 45%
04:00 +20°C° 0 mm 2 m/s 614 mmHg 46%
05:00 +20°C° 0 mm 2 m/s 614 mmHg 46%
06:00 +21°C° 0 mm 2 m/s 615 mmHg 40%
07:00 +24°C° 0 mm 2 m/s 616 mmHg 35%
08:00 +26°C° 0 mm 2 m/s 617 mmHg 29%
09:00 +28°C° 0 mm 2 m/s 617 mmHg 23%
10:00 +29°C° 0 mm 3 m/s 617 mmHg 18%
11:00 +31°C° 0 mm 3 m/s 618 mmHg 13%
12:00 +33°C° 0 mm 3 m/s 617 mmHg 12%
13:00 +34°C° 0 mm 4 m/s 617 mmHg 11%
14:00 +35°C° 0 mm 4 m/s 617 mmHg 10%
15:00 +34°C° 0 mm 5 m/s 617 mmHg 11%
16:00 +34°C° 0 mm 5 m/s 617 mmHg 11%
17:00 +34°C° 0 mm 5 m/s 617 mmHg 11%
18:00 +32°C° 0 mm 5 m/s 616 mmHg 14%
19:00 +28°C° 0 mm 4 m/s 616 mmHg 17%
20:00 +26°C° 0 mm 3 m/s 615 mmHg 20%
21:00 +24°C° 0 mm 2 m/s 615 mmHg 22%
22:00 +23°C° 0 mm 2 m/s 615 mmHg 24%
23:00 +21°C° 0 mm 2 m/s 615 mmHg 26%

8 Agosto, Domingo

Tempo Temperatura Precipitação Vento Pressão Humidade
00:00 +20°C° 0 mm 2 m/s 615 mmHg 25%
01:00 +20°C° 0 mm 3 m/s 615 mmHg 25%
02:00 +20°C° 0 mm 3 m/s 615 mmHg 25%
03:00 +19°C° 0 mm 3 m/s 615 mmHg 26%
04:00 +19°C° 0 mm 3 m/s 615 mmHg 26%
05:00 +19°C° 0 mm 3 m/s 615 mmHg 27%
06:00 +21°C° 0 mm 3 m/s 616 mmHg 24%
07:00 +25°C° 0 mm 3 m/s 616 mmHg 22%
08:00 +28°C° 0 mm 3 m/s 617 mmHg 19%
09:00 +30°C° 0 mm 2 m/s 617 mmHg 17%
10:00 +32°C° 0 mm 2 m/s 618 mmHg 14%
11:00 +34°C° 0 mm 1 m/s 618 mmHg 11%
12:00 +35°C° 0 mm 2 m/s 618 mmHg 11%
13:00 +36°C° 0 mm 2 m/s 618 mmHg 10%
14:00 +37°C° 0 mm 2 m/s 617 mmHg 10%
15:00 +36°C° 0 mm 3 m/s 617 mmHg 11%
16:00 +36°C° 0 mm 3 m/s 617 mmHg 11%
17:00 +36°C° 0 mm 3 m/s 616 mmHg 12%
18:00 +33°C° 0 mm 3 m/s 616 mmHg 16%
19:00 +30°C° 0 mm 4 m/s 615 mmHg 19%
20:00 +27°C° 0 mm 4 m/s 615 mmHg 23%
21:00 +26°C° 0 mm 4 m/s 615 mmHg 24%
22:00 +26°C° 0 mm 3 m/s 615 mmHg 25%
23:00 +25°C° 0 mm 3 m/s 615 mmHg 25%
Mostrar mais

Necessitamos do seu Consentimento

A Meteoprog e os seus Fornecedores de Serviços podem armazenar e aceder a dados pessoais como cookies, identificadores do dispositivo ou outras tecnologias semelhantes existentes no seu dispositivo e processar estes dados para personalizar conteúdos e anúncios, assim como funcionalidades nas redes sociais e análise de tráfego.

  • Armazenar e/ou aceder a informações no seu dispositivo

    Os cookies, identificadores do dispositivo ou outras informações podem ser armazenados ou acedidos no seu dispositivo, para os fins acima indicados.

  • Anúncios e conteúdos personalizados, medição de anúncios e conteúdos, dados sobre o público-alvo e desenvolvimento de produtos

    Os anúncios e os conteúdos podem ser personalizados com base num perfil. Podem ser adicionados dados adicionais para uma maior personalização dos anúncios e dos conteúdos. A eficácia dos anúncios e dos conteúdos pode ser medida. Podem ser obtidas informações sobre o público que visualizou os anúncios e os conteúdos. Estes dados podem ser usados para desenvolver ou melhorar sistemas, softwares ou a experiência do utilizador.

Ao clicar em "Eu concordo”, permitirá o uso de cookies, identificadores do dispositivo e web beacons mencionados ou outras tecnologias semelhantes. As configurações do navegador do seu dispositivo podem ser alteradas.

Para certos fins, podem ser invocados interesses legítimos ao invés de consentimento. Pode ler mais informação sobre este assunto na nossa Política de Privacidade e Cookies.